Starlink 34064

operational
NORAD ID: 64114 Int'l Des: 2025-110 Owner: SPXS Country: US Constellation: starlink
LEOCIRCULAR

Über Starlink 34064

Beschreibung wird geladen...

Live-Position

3D-Globus wird geladen...

Nächste Überflüge

Höhenverlauf

Altitude vs Time

uPlot chart will show altitude changes over time

Zweizeiliger Elementsatz

1 64114U 25110U 25308.12163918 .00058904 00000-0 14689-2 0 9990
2 64114 53.1612 250.2872 0001263 111.0218 249.0922 15.39667295 26658
Epoch: 4. Nov. 2025 • Age: 13 hours

Aktueller Status

Höhe 449.3 km
Geschwindigkeit 7.65 km/s
Subsatellitenpunkt 35.67°N, 2.24°E
Startdatum 23. Mai 2025
Alter 0.4 years
Typ internet

Technische Details

Klassifizierung Payload
Masse 575.00 kg
Trockenmasse 530.00 kg
Gesamtmasse 575.00 kg
Länge 0.30 m
Durchmesser 4.10 m
Spannweite 29.00 m
Form Box + pan
Hersteller SPXS
Bus-Typ Starlink V2MO
Phasenstatus In Orbit
Besitzer/Staat SPXS/US

Große Konstellationen

Loading constellations...